HAIYANG-1B

Last updated on Tue Mar 03 2026 00:02:31 GMT+0000 (Coordinated Universal Time)

1 31113U 07010A 26061.58553704 .00000133 00000+0 66431-4 0 9999 2 31113 98.3418 47.6107 0013955 152.7731 207.4187 14.30996710985380
UTC large
Height (km)
Speed (km/s)
/
Latitude / Longitude
Inclination (degrees)
Orbital Period (minutes)
Azimuth
Elevation
Range (km)
Doppler Factor

Next 0 passes for location: London (51.5072 / 0.1276)

Sorry there are no passes over London.